Swansboro, NC

4:10 AM EDT on May 21, 2018 (GMT -0400)
Bogue McAlf

Weather History for KNJM - December, 2012

Change the Weather History Date:

Saturday, December 15, 2012

  Actual Average (WUND) Record (WUND)
Temperature  
Mean Temperature 49 °F -  
Max Temperature 61 °F - - (-1)
Min Temperature 37 °F - - (-1)
Degree Days  
Heating Degree Days 16    
Moisture  
Dew Point 44 °F    
Average Humidity 83    
Maximum Humidity 100    
Minimum Humidity 62    
Precipitation  
Precipitation 0.00 in - - ()
Sea Level Pressure  
Sea Level Pressure 30.22 in    
Wind  
Wind Speed 5 mph (NNE)    
Max Wind Speed 8 mph    
Max Gust Speed -    
Visibility 10 miles    
Events      
Averages and records for this station are not official NWS values.
T = Trace of Precipitation, MM = Missing Value Source: NWS Daily Summary

Daily Weather History Graph

Daily Weather History Graph

Search for Another Location

Airport or City:

Astronomy

Dec. 15, 2012 Rise Set
Actual Time 7:08 AM EST 4:58 PM EST
Civil Twilight 6:40 AM EST 5:26 PM EST
Nautical Twilight 6:08 AM EST 5:58 PM EST
Astronomical Twilight 5:37 AM EST 6:29 PM EST
Moon 9:03 AM EST (12/15) 7:55 PM EST (12/15)
Length of Visible Light 10h 46m
Length of Day
9h 50m
Waxing Crescent, 8% of the Moon is Illuminated
Dec 15
Waxing Crescent
Dec 20
First Quarter
Dec 28
Full
Jan 4
Last Quarter
Jan 11
New

Hourly Weather History & Observations

Time (EST) Temp. Windchill Dew Point Humidity Pressure Visibility Wind Dir Wind Speed Gust Speed Precip Events Conditions
12:57 AM 42.1 °F 38.4 °F 39.9 °F 92% 30.26 in 10.0 mi NNE 5.8 mph - N/A   Clear
1:57 AM 37.9 °F 35.5 °F 37.9 °F 100% 30.25 in 10.0 mi NE 3.5 mph - N/A   Clear
2:57 AM 42.1 °F 38.4 °F 41.0 °F 96% 30.26 in 10.0 mi North 5.8 mph - N/A   Partly Cloudy
3:57 AM 42.1 °F 38.4 °F 39.9 °F 92% 30.24 in 8.0 mi NNE 5.8 mph - N/A   Scattered Clouds
4:15 AM 41.0 °F 35.8 °F 39.2 °F 93% 30.23 in 5.0 mi NNE 8.1 mph - N/A   Mostly Cloudy
4:24 AM 42.8 °F 39.3 °F 41.0 °F 93% 30.24 in 9.0 mi NNE 5.8 mph - N/A   Scattered Clouds
4:57 AM 42.1 °F 38.4 °F 41.0 °F 96% 30.25 in 10.0 mi NNE 5.8 mph - N/A   Clear
5:57 AM 43.0 °F 40.3 °F 41.0 °F 93% 30.24 in 10.0 mi NNE 4.6 mph - N/A   Clear
6:57 AM 43.0 °F - 41.0 °F 93% 30.25 in 10.0 mi Calm Calm - N/A   Partly Cloudy
7:57 AM 45.0 °F 41.8 °F 41.0 °F 86% 30.26 in 10.0 mi NNE 5.8 mph - N/A   Partly Cloudy
8:57 AM 46.0 °F 43.9 °F 42.1 °F 86% 30.28 in 10.0 mi NE 4.6 mph - N/A   Partly Cloudy
9:57 AM 48.9 °F - 43.0 °F 80% 30.28 in 10.0 mi Variable 4.6 mph - N/A   Clear
10:57 AM 53.1 °F - 42.1 °F 66% 30.27 in 10.0 mi NNE 6.9 mph - N/A   Clear
11:57 AM 55.9 °F - 43.0 °F 62% 30.23 in 10.0 mi NNE 5.8 mph - N/A   Clear
12:57 PM 60.1 °F - 46.9 °F 62% 30.22 in 10.0 mi North 4.6 mph - N/A   Clear
1:57 PM 61.0 °F - 48.0 °F 62% 30.19 in 10.0 mi NE 3.5 mph - N/A   Mostly Cloudy
2:57 PM 61.0 °F - 48.9 °F 64% 30.19 in 10.0 mi NNE 4.6 mph - N/A   Overcast
3:57 PM 59.0 °F - 48.0 °F 67% 30.19 in 10.0 mi NE 6.9 mph - N/A   Mostly Cloudy
4:57 PM 55.0 °F - 48.0 °F 77% 30.19 in 10.0 mi NNE 4.6 mph - N/A   Clear
5:57 PM 52.0 °F - 46.9 °F 83% 30.18 in 10.0 mi NE 4.6 mph - N/A   Scattered Clouds
6:57 PM 51.1 °F - 46.9 °F 86% 30.18 in 10.0 mi North 4.6 mph - N/A   Overcast
7:57 PM 51.1 °F - 46.0 °F 83% 30.17 in 10.0 mi NNE 3.5 mph - N/A   Overcast
8:57 PM 51.1 °F - 46.9 °F 86% 30.16 in 10.0 mi Calm Calm - N/A   Overcast
9:57 PM 52.0 °F - 46.9 °F 83% 30.14 in 10.0 mi Calm Calm - N/A   Overcast
10:57 PM 54.0 °F - 48.0 °F 80% 30.13 in 10.0 mi Calm Calm - N/A   Overcast
11:57 PM 53.1 °F - 48.9 °F 86% 30.12 in 10.0 mi Calm Calm - N/A   Overcast